Location: Stara Lesna
(49.1528°N, 20.2911°E)
Time: 09:37:14
(UTC+02:00)

Unknown - Pass Details

Date: 21 September 2019
Orbit: 549 x 551 km, 53.0° (Epoch: 23 October)

Event Time Altitude Azimuth Distance (km) Brightness Sun altitude
Exits shadow 04:54:47 26° 271° (W) 1,117 4.6 -15.0°
Maximum altitude 04:57:00 62° 344° (NNW) 624 3.8 -14.6°
Drops below altitude 10° 05:01:08 10° 66° (ENE) 1,831 7.7 -14.0°
Sets 05:03:24 0° 70° (ENE) 2,726 9.2 -13.6°
